User: anonymous   Login
Location: Caltech
(34.1382°N, 118.1253°W)
Time: 06:23:55
(UTC-07:00)
Language:

Sapphire - Orbit

View from above orbital plane
View from above orbital plane
View from above satellite
View from above satellite

Ground track
Ground track

The orbit data is extracted from the following two-line orbital elements,

1 26932U 01043D   15142.49544786  .00000076  00000-0  61398-4 0  9994
2 26932 067.0569 244.6898 0006425 249.0377 111.0037 14.30145225712164
Epoch (UTC): 22 May 2015 11:53:26
Eccentricity: 0.0006425
inclination: 67.0569°
perigee height: 786 km
apogee height: 796 km
right ascension of ascending node: 244.6898°
argument of perigee: 249.0377°
revolutions per day: 14.30145225
mean anomaly at epoch: 111.0037°
orbit number at epoch: 71216

The dashed part of the orbit path shows where the satellite is in the earth's shadow,  

DLR